Location: Goettingen
(51.5300°N, 9.9433°E)
Time: 22:38:29
(UTC+01:00)

ISS - Pass Details

Date: 30 November 2024
Orbit: 411 x 421 km, 51.6° (Epoch: 03 December)

Event Time Altitude Azimuth Distance (km) Brightness Sun altitude
Rises 17:42:38 0° 284° (WNW) 2,376 1.1 -12.9°
Reaches altitude 10° 17:44:48 10° 277° (W) 1,509 0.1 -13.3°
Maximum altitude 17:48:01 42° 206° (SSW) 617 -2.6 -13.7°
Drops below altitude 10° 17:51:14 10° 134° (SE) 1,503 -1.2 -14.2°
Enters shadow 17:51:18 10° 133° (SE) 1,528 -1.2 -14.2°
